Location: Alpha Ridge Park
(39.3209°N, 76.9128°W)
Time: 04:31:00
(UTC-04:00)

Envisat - Visible Passes

Search period start: 25 April 2019 00:00
Search period end: 05 May 2019 00:00
Orbit: 764 x 766 km, 98.2° (Epoch: 24 April)

Date Brightness Start Highest point End Pass type
(mag) Time Alt. Az. Time Alt. Az. Time Alt. Az.
25 Apr 4.5 20:16:58 10° SSW 20:21:42 39° W 20:26:28 10° NNW visible
27 Apr 5.5 20:43:29 10° SW 20:47:23 22° W 20:51:19 10° NW visible
29 Apr 6.0 21:11:12 10° WSW 21:13:11 12° W 21:15:10 10° WNW visible
30 Apr 5.1 20:31:45 10° SSW 20:36:05 28° W 20:40:26 10° NW visible
02 May 5.8 20:58:47 10° SW 21:01:50 16° W 21:04:53 10° NW visible
